Location: Austin
(30.3000°N, 97.7500°W)
Time: 23:13:21
(UTC-05:00)

CSL-04 Debris - Pass Details

Date: 06 May 2026
Orbit: 820 x 838 km, 98.7° (Epoch: 13 May)

Event Time Altitude Azimuth Distance (km) Brightness Sun altitude
Exits shadow 21:27:28 14° 162° (SSE) 2,159 5.9 -15.5°
Maximum altitude 21:32:10 82° 77° (ENE) 841 4.1 -16.4°
Drops below altitude 10° 21:37:35 10° 349° (N) 2,444 7.2 -17.4°
Sets 21:39:57 0° 349° (N) 3,383 8.0 -17.8°
